Regional Weather Roundup
Issued by NWS Albany, NY

Home | Current Version | Previous Version | Graphics & Text | Print | Product List | Glossary On
Versions: 1 2 3 4 5 6 7 8 9 10 11 12 13 14 15 16 17 18 19 20 21 22 23 24 25 26 27 28 29 30 31 32 33 34 35 36 37 38 39 40 41 42 43 44 45 46 47 48 49 50
000
ASUS41 KALY 291110
RWRALY

NEW YORK STATE HOURLY WEATHER ROUNDUP
NATIONAL WEATHER SERVICE ALBANY NY
700 AM EDT TUE JUL 29 2014

NOTE: "FAIR" INDICATES FEW OR NO CLOUDS BELOW 12,000 FEET WITH NO
SIGNIFICANT WEATHER AND/OR NO OBSTRUCTIONS TO VISIBILITY.

NYZ032-033-038>043-046>054-057>066-NYZ062>081-291200-
EAST


CITY           SKY/WX    TMP DP  RH WIND       PRES   REMARKS
ALBANY         PTSUNNY   59  53  80 VRB3      29.81R
GLENS FALLS    SUNNY     59  54  83 NW8       29.78R
POUGHKEEPSIE   PTSUNNY   62  55  77 W7        29.80R
NEWBURGH       SUNNY     57  55  94 W8        29.83R
MONTGOMERY     SUNNY     59  54  83 W9        29.82R
WHITE PLAINS   MOSUNNY   62  55  77 W5        29.82R
ISLIP          MOSUNNY   66  56  70 W6        29.79R
NEW YORK CITY  MOSUNNY   65  53  65 NW13      29.82R
CENTRAL PARK   SUNNY     64  52  64 VRB5      29.85R
$$

NYZ005>009-017-018-044>046-055-056-291200-
CENTRAL


CITY           SKY/WX    TMP DP  RH WIND       PRES   REMARKS
FULTON         PTSUNNY   54  52  93 E3        29.85R
SYRACUSE       PTSUNNY   56  55  97 W6        29.85R
ROME           SUNNY     52  51  97 CALM      29.85R
ELMIRA         PTCLDY    54  53  97 CALM      29.88R
BINGHAMTON     SUNNY     53  52  96 NW5       29.87R
MONTICELLO     SUNNY     54  52  94 W6        29.86R
$$

NYZ026>034-041>043-291200-
NORTH


CITY           SKY/WX    TMP DP  RH WIND       PRES   REMARKS
WATERTOWN      SUNNY     53  49  86 SW3       29.84R
FORT DRUM      NOT AVBL
MASSENA        MOSUNNY   54  51  90 W5        29.80R
SARANAC LAKE   CLOUDY    50  48  93 VRB5      29.79R
PLATTSBURGH    SUNNY     57  52  83 W6        29.74R
$$

NYZ001>004-010>016-019>021-291200-
WEST


CITY           SKY/WX    TMP DP  RH WIND       PRES   REMARKS
NIAGARA FALLS  CLOUDY    58  54  86 NW6       29.90R
BUFFALO        MOCLDY    57  53  86 W6        29.90R
DUNKIRK        CLOUDY    58  54  86 CALM      29.92R
JAMESTOWN      CLOUDY    54  50  87 CALM      29.93R
WELLSVILLE     CLOUDY    53  49  86 W7        29.93R
ROCHESTER      CLOUDY    56  53  90 W6        29.88R
PENN YAN       CLOUDY    57  53  86 S5        29.88R
$$

             KEY
       WCI = WIND CHILL INDEX
       VSB = VISIBILITY
       HX  = HEAT INDEX
$$


USA.gov is the U.S. government's official web portal to all federal, state and local government web resources and services.